Savoy, IL

3:26 AM CDT on September 26, 2016 (GMT -0500)
Univ Of Illinois-Willard

Weather History for KCMI - November, 2013

Change the Weather History Date:

Monday, November 11, 2013

  Actual Average Record
Temperature  
Mean Temperature 41 °F 44 °F  
Max Temperature 53 °F 54 °F 75 °F (2010)
Min Temperature 28 °F 34 °F 23 °F (1996)
Degree Days  
Heating Degree Days 24 21  
Month to date heating degree days 223 208  
Since 1 July heating degree days 615 669  
Cooling Degree Days 0 0  
Month to date cooling degree days 0 0  
Year to date cooling degree days 1067 944  
Moisture  
Dew Point 33 °F    
Average Humidity 79    
Maximum Humidity 96    
Minimum Humidity 61    
Precipitation  
Precipitation 0.10 in 0.12 in 0.55 in (2012)
Month to date precipitation 0.44 1.25  
Year to date precipitation 29.20 34.95  
Sea Level Pressure  
Sea Level Pressure 30.27 in    
Wind  
Wind Speed 15 mph (NW)    
Max Wind Speed 26 mph    
Max Gust Speed 33 mph    
Visibility 7 miles    
Events Rain , Snow    
T = Trace of Precipitation, MM = Missing Value Source: NWS Daily Summary

Daily Weather History Graph

Daily Weather History Graph

Search for Another Location

Airport or City:

Trip Planner

Search our weather history database for the weather conditions in past years. The results will help you decide how hot, cold, wet, or windy it might be!

Date:

Astronomy

Nov. 11, 2013 Rise Set
Actual Time 6:34 AM CST 4:39 PM CST
Civil Twilight 6:05 AM CST 5:08 PM CST
Nautical Twilight 5:32 AM CST 5:41 PM CST
Astronomical Twilight 5:00 AM CST 6:13 PM CST
Moon 1:20 PM CST (11/11) 12:18 AM CST (11/11)
Length of Visible Light 11h 03m
Length of Day
10h 05m
Waxing Gibbous, 66% of the Moon is Illuminated
Nov 11
Waxing Gibbous
Nov 17
Full
Nov 25
Last Quarter
Dec 2
New
Dec 9
First Quarter

Hourly Weather History & Observations

Time (CST) Temp. Windchill Dew Point Humidity Pressure Visibility Wind Dir Wind Speed Gust Speed Precip Events Conditions
12:53 AM 39.0 °F 32.8 °F 33.1 °F 79% 30.27 in 10.0 mi South 9.2 mph - N/A   Overcast
1:53 AM 39.0 °F 34.8 °F 33.1 °F 79% 30.26 in 10.0 mi SSW 5.8 mph - N/A   Overcast
2:53 AM 39.0 °F 33.4 °F 33.1 °F 79% 30.25 in 10.0 mi SSW 8.1 mph - N/A   Overcast
3:53 AM 39.0 °F 34.0 °F 34.0 °F 82% 30.24 in 10.0 mi South 6.9 mph - N/A   Overcast
4:53 AM 41.0 °F 35.8 °F 34.0 °F 76% 30.22 in 10.0 mi South 8.1 mph - N/A   Overcast
5:53 AM 42.1 °F 35.2 °F 33.1 °F 70% 30.21 in 10.0 mi South 12.7 mph - 0.00 in   Overcast
6:53 AM 42.1 °F 34.5 °F 33.1 °F 70% 30.20 in 10.0 mi SSW 15.0 mph - 0.00 in   Overcast
7:53 AM 44.1 °F 36.8 °F 34.0 °F 68% 30.20 in 10.0 mi SSW 16.1 mph - N/A   Overcast
8:53 AM 46.9 °F - 35.1 °F 63% 30.18 in 10.0 mi SSW 17.3 mph - 0.00 in   Mostly Cloudy
9:53 AM 50.0 °F - 37.0 °F 61% 30.17 in 10.0 mi SSW 19.6 mph - N/A   Overcast
10:53 AM 50.0 °F - 39.0 °F 66% 30.16 in 10.0 mi SW 17.3 mph 23.0 mph N/A   Overcast
11:53 AM 52.0 °F - 39.9 °F 63% 30.15 in 10.0 mi WSW 15.0 mph - N/A   Overcast
12:53 PM 52.0 °F - 42.1 °F 69% 30.12 in 10.0 mi WSW 10.4 mph - N/A   Overcast
1:53 PM 52.0 °F - 42.1 °F 69% 30.14 in 10.0 mi West 8.1 mph - N/A   Overcast
2:53 PM 48.9 °F - 39.0 °F 69% 30.15 in 10.0 mi NNW 15.0 mph - N/A   Overcast
3:33 PM 44.6 °F 36.9 °F 41.0 °F 87% 30.16 in 2.5 mi North 18.4 mph 26.5 mph 0.00 in Rain Light Rain
3:47 PM 42.8 °F 34.3 °F 39.2 °F 87% 30.17 in 2.5 mi North 19.6 mph 26.5 mph 0.00 in Rain Light Rain
3:53 PM 43.0 °F 35.1 °F 39.9 °F 89% 30.19 in 2.5 mi North 17.3 mph 26.5 mph 0.01 in Rain Light Rain
4:53 PM 39.9 °F 30.2 °F 37.0 °F 89% 30.23 in 2.5 mi North 20.7 mph 31.1 mph 0.01 in   Overcast
5:53 PM 37.0 °F 26.4 °F 35.1 °F 93% 30.28 in 6.0 mi North 20.7 mph 29.9 mph 0.03 in Rain Light Rain
6:04 PM 37.4 °F 27.2 °F 33.8 °F 87% 30.26 in 7.0 mi North 19.6 mph 29.9 mph 0.01 in Rain Light Rain
6:19 PM 35.6 °F 24.5 °F 33.8 °F 93% 30.27 in 7.0 mi North 20.7 mph 24.2 mph 0.01 in Rain Light Rain
6:53 PM 35.1 °F 24.5 °F 33.1 °F 92% 30.31 in 7.0 mi North 18.4 mph 24.2 mph 0.02 in Snow Light Snow
7:46 PM 33.8 °F 24.8 °F 32.0 °F 93% 30.32 in 2.0 mi North 12.7 mph 20.7 mph 0.00 in Snow Light Snow
7:53 PM 34.0 °F 23.8 °F 32.0 °F 92% 30.35 in 2.0 mi North 16.1 mph 23.0 mph 0.01 in Snow Light Snow
7:57 PM 33.8 °F 23.9 °F 32.0 °F 93% 30.33 in 1.8 mi North 15.0 mph 23.0 mph 0.00 in Snow Light Snow
8:53 PM 30.9 °F 17.8 °F 28.9 °F 92% 30.39 in 1.2 mi North 23.0 mph 28.8 mph 0.01 in Snow Light Snow
9:18 PM 30.2 °F 17.4 °F 28.4 °F 93% 30.38 in 1.0 mi North 20.7 mph 25.3 mph 0.01 in Snow Light Snow
9:21 PM 30.2 °F 18.1 °F 28.4 °F 93% 30.38 in 1.0 mi North 18.4 mph 25.3 mph 0.01 in Snow Light Snow
9:53 PM 30.0 °F 19.5 °F 28.0 °F 92% 30.42 in 1.2 mi North 13.8 mph - 0.01 in Snow Light Snow
9:59 PM 30.2 °F 17.8 °F 28.4 °F 93% 30.41 in 1.2 mi North 19.6 mph 24.2 mph 0.00 in Snow Light Snow
10:04 PM 30.2 °F 17.8 °F 26.6 °F 86% 30.41 in 3.0 mi North 19.6 mph 24.2 mph 0.00 in Snow Light Snow
10:20 PM 30.2 °F 18.5 °F 24.8 °F 80% 30.42 in 10.0 mi North 17.3 mph - 0.00 in   Overcast
10:53 PM 30.0 °F 17.9 °F 24.1 °F 79% 30.45 in 10.0 mi North 18.4 mph - 0.00 in   Mostly Cloudy
11:53 PM 28.9 °F 16.9 °F 21.9 °F 75% 30.47 in 10.0 mi North 17.3 mph 26.5 mph N/A   Partly Cloudy